San Bernardino, CA

2:45 AM PST on December 10, 2019 (GMT -0800)
San Bernardino International

Weather History for KSBD - May, 2019

Change the Weather History Date:

Tuesday, May 28, 2019

  Actual Average Record
Temperature  
Mean Temperature 63 °F -  
Max Temperature 77 °F 80 °F 89 °F (2012)
Min Temperature 49 °F 54 °F 49 °F (2019)
Degree Days  
Heating Degree Days 2    
Growing Degree Days 13 (Base 50)    
Moisture  
Dew Point 44 °F    
Average Humidity 60    
Maximum Humidity 82    
Minimum Humidity 28    
Precipitation  
Precipitation 0.00 in - - ()
Sea Level Pressure  
Sea Level Pressure 29.94 in    
Wind  
Wind Speed 2 mph (WSW)    
Max Wind Speed 13 mph    
Max Gust Speed -    
Visibility 9 miles    
Events      
Averages and records for this station are not official NWS values.
T = Trace of Precipitation, MM = Missing Value Source: NWS Daily Summary

Daily Weather History Graph

Daily Weather History Graph

Search for Another Location

Airport or City:

Astronomy

May. 28, 2019 Rise Set
Actual Time 5:39 AM PDT 7:52 PM PDT
Civil Twilight 5:11 AM PDT 8:21 PM PDT
Nautical Twilight 4:36 AM PDT 8:56 PM PDT
Astronomical Twilight 3:58 AM PDT 9:34 PM PDT
Moon 2:34 AM PDT (5/28) 2:25 PM PDT (5/28)
Length of Visible Light 15h 09m
Length of Day
14h 12m
Waning Crescent, 30% of the Moon is Illuminated
May 28
Waning Crescent
Jun 3
New
Jun 9
First Quarter
Jun 17
Full
Jun 25
Last Quarter

Hourly Weather History & Observations

Time (PDT) Temp. Dew Point Humidity Pressure Visibility Wind Dir Wind Speed Gust Speed Precip Events Conditions
12:00 AM 55.8 °F 41.4 °F 58% 29.99 in 10.0 mi Calm Calm - N/A   Clear
12:20 AM 55.4 °F 41.5 °F 60% 29.99 in 10.0 mi Calm Calm - N/A   Clear
12:40 AM 55.4 °F 42.1 °F 61% 29.99 in 10.0 mi Calm Calm - N/A   Clear
12:41 AM 55.2 °F 42.3 °F 62% 29.99 in 10.0 mi Calm Calm - N/A   Clear
1:00 AM 54.1 °F 43.7 °F 68% 29.98 in 10.0 mi Calm Calm - N/A   Clear
1:20 AM 53.8 °F 43.9 °F 69% 29.97 in 10.0 mi Calm Calm - N/A   Clear
1:40 AM 53.6 °F 43.9 °F 70% 29.97 in 10.0 mi Calm Calm - N/A   Clear
1:41 AM 53.6 °F 43.9 °F 70% 29.97 in 10.0 mi Calm Calm - N/A   Clear
2:00 AM 53.1 °F 44.2 °F 72% 29.97 in 10.0 mi Calm Calm - N/A   Clear
2:20 AM 52.0 °F 43.5 °F 73% 29.97 in 10.0 mi Calm Calm - N/A   Clear
2:40 AM 52.2 °F 43.7 °F 73% 29.97 in 10.0 mi Calm Calm - N/A   Clear
2:41 AM 52.3 °F 43.7 °F 72% 29.97 in 10.0 mi Calm Calm - N/A   Clear
3:00 AM 51.8 °F 43.2 °F 72% 29.97 in 10.0 mi ESE 4.6 mph - N/A   Clear
3:20 AM 51.8 °F 43.0 °F 72% 29.97 in 10.0 mi Calm Calm - N/A   Clear
3:40 AM 51.1 °F 43.0 °F 74% 29.96 in 10.0 mi Calm Calm - N/A   Clear
3:41 AM 50.9 °F 43.0 °F 74% 29.96 in 10.0 mi Calm Calm - N/A   Clear
4:00 AM 51.1 °F 43.0 °F 74% 29.96 in 10.0 mi Calm Calm - N/A   Clear
4:20 AM 50.9 °F 42.8 °F 74% 29.96 in 10.0 mi Calm Calm - N/A   Clear
4:40 AM 50.9 °F 42.3 °F 72% 29.95 in 10.0 mi Calm Calm - N/A   Clear
4:41 AM 50.9 °F 42.3 °F 72% 29.95 in 10.0 mi Calm Calm - N/A   Clear
5:00 AM 50.5 °F 41.9 °F 72% 29.95 in 10.0 mi Calm Calm - N/A   Clear
5:20 AM 49.6 °F 41.9 °F 75% 29.95 in 10.0 mi Calm Calm - N/A   Clear
5:41 AM 49.6 °F 42.3 °F 76% 29.94 in 10.0 mi Calm Calm - N/A   Clear
6:50 AM 50.0 °F 44.6 °F 82% 29.95 in 7.0 mi Calm Calm - N/A   Clear
7:50 AM 55.4 °F 44.6 °F 67% 29.95 in 7.0 mi Calm Calm - N/A   Clear
8:50 AM 59.0 °F 42.8 °F 55% 29.95 in 7.0 mi North - - N/A   Clear
9:50 AM - - N/A% - 7.0 mi Calm Calm - N/A   Clear
11:50 AM 71.6 °F 42.8 °F 35% 29.91 in 7.0 mi South 3.5 mph - N/A   Clear
12:50 PM 71.6 °F 42.8 °F 35% 29.90 in 7.0 mi WNW 6.9 mph - N/A   Scattered Clouds
1:50 PM 75.2 °F 41.0 °F 29% 29.89 in 6.0 mi SW 5.8 mph - N/A   Haze
2:50 PM 77.0 °F 41.0 °F 28% 29.88 in 6.0 mi NW 4.6 mph - N/A   Haze
3:50 PM 77.0 °F 42.8 °F 29% 29.86 in 6.0 mi West 8.1 mph - N/A   Haze
4:50 PM 77.0 °F 42.8 °F 29% 29.85 in 6.0 mi West 9.2 mph - N/A   Haze
5:59 PM 75.2 °F 46.4 °F 36% 29.84 in 6.0 mi WSW 10.4 mph - N/A   Haze
6:50 PM 73.4 °F 44.6 °F 36% 29.84 in 6.0 mi WSW 12.7 mph - N/A   Haze
7:48 PM 68.0 °F 46.4 °F 46% 29.86 in 6.0 mi WSW 12.7 mph - N/A   Haze
9:40 PM 63.9 °F 47.3 °F 55% 29.91 in 10.0 mi WSW 8.1 mph - N/A   Clear
10:00 PM 63.1 °F 47.5 °F 57% 29.91 in 10.0 mi West 6.9 mph - N/A   Clear
10:20 PM 61.9 °F 47.8 °F 60% 29.91 in 10.0 mi West 5.8 mph - N/A   Clear
10:21 PM 61.9 °F 47.8 °F 60% 29.91 in 10.0 mi West 4.6 mph - N/A   Clear
10:40 PM 61.9 °F 47.8 °F 60% 29.92 in 10.0 mi WSW 3.5 mph - N/A   Clear
11:01 PM 61.2 °F 48.4 °F 63% 29.92 in 10.0 mi WSW 5.8 mph - N/A   Clear
11:20 PM 61.2 °F 48.2 °F 62% 29.92 in 10.0 mi WSW 3.5 mph - N/A   Clear
11:40 PM 61.7 °F 48.2 °F 61% 29.92 in 10.0 mi Calm Calm - N/A   Clear